STARLINK-33903, 63828

Orbit data source: Space-Track

STARLINK-33903, 63828 is a payload satellite owned by SpaceX/Seattle (US) in LEO that was launched on Sun, 04 May 2025 UTC via an FALCON 9 launch vehicle from the Air Force Eastern Test Range (AFETR). Payload-class satellites include a variety of spacecraft equipped with specific instruments for various scientific and technological missions. These include communications satellites like Starlink; space stations such as the ISS; scientific satellites like the Hubble; Earth observation satellites from companies like Planet Labs, Umbra, and HawkEye 360; GPS; miniature CubeSats for education and research; and military/defense satellites.

Loading next visibility...
Identifier
63828, 2025-092AA
Orbit
LEO
Country
Flag of USUS
Related business
Manufacturer
SpaceX/Seattle
Mission
Operational Commercial Communications
Bus & Motor
STARLINK V2MO, Unknown motor
Mass
575 kg wet, ~530 kg dry
Launch date (UTC)
2025-05-04 (1 year ago)
Launch vehicle
FALCON 9
Launch site
Air Force Eastern Test Range (AFETR)
Object type
Payload
Rocket body
Debris
Shape & HBR
Box + 2 Pan, 17.7 m
Radar Cross Section
36.964 m², Large (>1 m²)

Expand to show TLE details & history
Last TLE update: 8 hours ago

TLE from 8 hours ago
0 STARLINK-33903
1 63828U 25092AA  26178.53217368  .00021347  00000-0  78219-3 0  9991
2 63828  43.0002 272.2088 0001729 281.0066  79.0591 15.27614327 65469
Epoch: 2026-06-27T12:46Z
TLE epoch observation values (Epoch: 2026-06-27T12:46:19.805Z)
Latitude
-0.00005°
Longitude
164.98125°
Altitude
482.497 km
Speed
7.626 km/s
True Right ascension
18h 08m 50s
True Declination
0° 00' 00"
Sunlit
Object was in full shadow at epoch
Visualization orbit readout
Latitude
Unknown
Longitude
Unknown
Altitude
Unknown
Speed
Unknown
Apparent Right ascension
Unknown
Apparent Declination
Unknown
Sunlit
N/A
Visualization observer readout
Local Sidereal Time
08:17:29
Azimuth
Unknown
Elevation
Unknown
Doppler factor
Unknown
Orbital elements
Apogee altitude
486.078 km
Perigee altitude
483.705 km
Semi-major axis
6,863.028 km
Eccentricity
0.00017
Inclination
43.0002°
RAAN
272.2088°
Arg. of periapsis
281.0066°
True anomaly
79.07855°
Mean anomaly
79.0591°
Eccentric anomaly
79.06883°
Mean motion
3.81742 °/min
Orbital period
94.3 mins
BSTAR
0.00078219
Loading maneuver chart data...
Computing Atmospheric mass density...
Loading historical data...
Loading historical data...
Loading historical data...
Loading historical data...
Loading historical data...
Loading historical data...
Loading historical data...

Documentation

Showing up to 5 results
|